Weather in Starovarvarovka

Russia / Primorsky Krai     43°53′09″N   132°55′44″E
temp.,
°C
wind,
m/s
gust,
m/s
humid.,
%
clouds,
%
prec.,
mm/h
press.,
hPa
HPBL,
m
15 april, thu
thu1501:00−2s247334 0.0 101375
04:00−1sw23615 0.0 101466
07:00−1s22600 0.0 101645
10:00+7ssw242337 0.0 1015936
13:00+11sw68205 0.0 10131781
16:00+12sw61028100 0.0 10131154
19:00+9ssw51334100 0.0 1014907
22:00+6s41143100 0.0 1015479
16 april, fri
fri1601:00+4s3758100 0.0 1015194
04:00+2se247521 0.0 101564
07:00+5sse4127519 0.0 1013683
10:00+8sse61561100 0.0 10121305
13:00+11sse7154499 0.0 10111837
16:00+10sse61560100 0.0 10081795
19:00+8s5127794 0.2 10071423
22:00+6s41488100 1.3 10071433
17 april, sat
sat1701:00+7s4108194 0.6 1006931
04:00+5s3684100 1.1 1007245
07:00+3sse24914 0.0 100994
10:00+10sw47458 0.0 10091544
13:00+13sw4729100 0.0 10072178
16:00+13wsw4726100 0.0 10062796
19:00+11wsw233699 0.0 100685
22:00+7ssw1164100 0.1 100811
18 april, sun
sun1801:00+5nw1275100 0.1 100736
04:00+4nw2285100 0.1 100729
07:00+3nw249794 0.0 1007171
10:00+6nnw487999 0.0 1008789
13:00+9nnw6959100 0.1 10061439
16:00+11nnw61150100 0.1 10051910
19:00+10nnw613485 0.0 10051648
22:00+7nnw312585 0.0 1007490
19 april, mon
mon1901:00+4wsw217574 0.0 100822
04:00+5wsw127673 0.0 100840
07:00+4wsw12813 0.0 100929
10:00+11nnw48470 0.0 1009831
13:00+14nnw58351 0.0 10081800
16:00+15nnw58310 0.0 10081862
19:00+13nnw26410 0.0 1008281
22:00+9ssw11555 0.0 101010